Melsbroek, Belgium

3:26 PM CEST on July 24, 2016 (GMT +0200)
Brussels National

Weather History for EBBR - January, 2013

Change the Weather History Date:

Tuesday, January 8, 2013

  Actual Average Record
Temperature  
Mean Temperature 43 °F -  
Max Temperature 45 °F 42 °F 53 °F (1998)
Min Temperature 41 °F 33 °F 10 °F (1997)
Degree Days  
Heating Degree Days 22    
Moisture  
Dew Point 39 °F    
Average Humidity 84    
Maximum Humidity 88    
Minimum Humidity 75    
Precipitation  
Precipitation 0.00 in - - ()
Sea Level Pressure  
Sea Level Pressure 30.30 in    
Wind  
Wind Speed 9 mph ()    
Max Wind Speed 13 mph    
Max Gust Speed -    
Visibility 6.1 miles    
Events      
Averages and records for this station are not official NWS values.
T = Trace of Precipitation, MM = Missing Value Source: Averaged Metar Reports

Daily Weather History Graph

Daily Weather History Graph

Search for Another Location

Airport or City:

Trip Planner

Search our weather history database for the weather conditions in past years. The results will help you decide how hot, cold, wet, or windy it might be!

Date:

Astronomy

Jan. 08, 2013 Rise Set
Actual Time 8:42 AM CET 4:55 PM CET
Civil Twilight 8:04 AM CET 5:33 PM CET
Nautical Twilight 7:22 AM CET 6:15 PM CET
Astronomical Twilight 6:42 AM CET 6:55 PM CET
Moon 4:54 AM CET (1/8) 1:45 PM CET (1/8)
Length of Visible Light 9h 29m
Length of Day
8h 12m
Waning Crescent, 16% of the Moon is Illuminated
Jan 8
Waning Crescent
Jan 11
New
Jan 19
First Quarter
Jan 27
Full
Feb 3
Last Quarter

Hourly Weather History & Observations

Time (CET) Temp. Windchill Dew Point Humidity Pressure Visibility Wind Dir Wind Speed Gust Speed Precip Events Conditions
12:20 AM 42.8 °F 38.6 °F 39.2 °F 87% 30.30 in 6.2 mi SW 6.9 mph - N/A   Mostly Cloudy
12:50 AM 42.8 °F 38.6 °F 39.2 °F 87% 30.30 in 5.6 mi SW 6.9 mph - N/A   Mostly Cloudy
1:00 AM 43 °F - 40 °F 84% 30.33 in 6 mi SW 6.7 mph - -   Mostly Cloudy
1:20 AM 42.8 °F 37.5 °F 39.2 °F 87% 30.30 in 5.6 mi WSW 9.2 mph - N/A   Mostly Cloudy
1:50 AM 42.8 °F 36.6 °F 39.2 °F 87% 30.33 in 5.6 mi WSW 11.5 mph - N/A   Mostly Cloudy
2:20 AM 42.8 °F 37.0 °F 39.2 °F 87% 30.30 in 5.6 mi West 10.4 mph - N/A   Mostly Cloudy
2:50 AM 42.8 °F 38.0 °F 39.2 °F 87% 30.30 in 5.6 mi WSW 8.1 mph - N/A   Mostly Cloudy
3:20 AM 42.8 °F 37.5 °F 39.2 °F 87% 30.30 in 5.6 mi SW 9.2 mph - N/A   Mostly Cloudy
3:50 AM 42.8 °F 37.5 °F 39.2 °F 87% 30.30 in 5.6 mi SW 9.2 mph - N/A   Mostly Cloudy
4:00 AM 42 °F - 40 °F 88% 30.33 in 6 mi SW 8.9 mph - -   Mostly Cloudy
4:20 AM 42.8 °F 38.6 °F 39.2 °F 87% 30.30 in 5.6 mi SW 6.9 mph - N/A   Mostly Cloudy
4:50 AM 42.8 °F 38.0 °F 39.2 °F 87% 30.30 in 5.6 mi SW 8.1 mph - N/A   Mostly Cloudy
5:20 AM 42.8 °F 38.0 °F 39.2 °F 87% 30.30 in 5.6 mi WSW 8.1 mph - N/A   Mostly Cloudy
5:50 AM 42.8 °F 36.2 °F 39.2 °F 87% 30.30 in 5.6 mi SW 12.7 mph - N/A   Mostly Cloudy
6:20 AM 42.8 °F 36.6 °F 39.2 °F 87% 30.30 in 5.6 mi SW 11.5 mph - N/A   Mostly Cloudy
6:50 AM 42.8 °F 36.6 °F 39.2 °F 87% 30.30 in 5.0 mi SW 11.5 mph - N/A   Mostly Cloudy
7:00 AM 42 °F - 39 °F 87% 30.32 in 5 mi SW 11.2 mph - -   Mostly Cloudy
7:20 AM 42.8 °F 36.6 °F 39.2 °F 87% 30.30 in 5.0 mi SW 11.5 mph - N/A   Mostly Cloudy
7:50 AM 42.8 °F 36.6 °F 39.2 °F 87% 30.30 in 5.0 mi SSW 11.5 mph - N/A   Mostly Cloudy
8:20 AM 42.8 °F 36.6 °F 39.2 °F 87% 30.30 in 5.0 mi SW 11.5 mph - N/A   Mostly Cloudy
8:50 AM 42.8 °F 37.5 °F 39.2 °F 87% 30.30 in 5.6 mi SSW 9.2 mph - N/A   Mostly Cloudy
9:20 AM 42.8 °F 37.0 °F 39.2 °F 87% 30.30 in 6.2 mi SW 10.4 mph - N/A   Mostly Cloudy
9:50 AM 42.8 °F 37.0 °F 39.2 °F 87% 30.30 in 6.2 mi SW 10.4 mph - N/A   Mostly Cloudy
10:00 AM 43 °F - 39 °F 80% 30.33 in 8 mi SW 11.2 mph - -   Overcast
10:20 AM 42.8 °F 37.0 °F 39.2 °F 87% 30.30 in 6.2 mi SW 10.4 mph - N/A   Mostly Cloudy
10:50 AM 42.8 °F 36.6 °F 39.2 °F 87% 30.30 in 6.2 mi SW 11.5 mph - N/A   Mostly Cloudy
11:20 AM 44.6 °F 39.2 °F 39.2 °F 81% 30.33 in 6.2 mi SW 10.4 mph - N/A   Mostly Cloudy
11:50 AM 44.6 °F 38.8 °F 39.2 °F 81% 30.33 in 6.2 mi SW 11.5 mph - N/A   Mostly Cloudy
12:20 PM 44.6 °F 38.4 °F 39.2 °F 81% 30.30 in 6.2 mi SW 12.7 mph - N/A   Mostly Cloudy
12:50 PM 44.6 °F 38.4 °F 39.2 °F 81% 30.30 in 6.2 mi SW 12.7 mph - N/A   Mostly Cloudy
1:00 PM 44 °F - 39 °F 77% 30.33 in 9 mi SW 13.4 mph - -   Overcast
1:20 PM 44.6 °F 38.4 °F 39.2 °F 81% 30.30 in 6.2 mi SW 12.7 mph - N/A   Mostly Cloudy
1:50 PM 44.6 °F 38.8 °F 39.2 °F 81% 30.30 in 6.2 mi SW 11.5 mph - N/A   Mostly Cloudy
2:20 PM 44.6 °F 39.2 °F 39.2 °F 81% 30.30 in 6.2 mi SW 10.4 mph - N/A   Mostly Cloudy
2:50 PM 44.6 °F 39.2 °F 41.0 °F 87% 30.30 in 6.2 mi SW 10.4 mph - N/A   Mostly Cloudy
3:20 PM 44.6 °F 38.8 °F 41.0 °F 87% 30.30 in 6.2 mi SW 11.5 mph - N/A   Mostly Cloudy
3:50 PM 44.6 °F 38.8 °F 39.2 °F 81% 30.30 in 6.2 mi SW 11.5 mph - N/A   Mostly Cloudy
4:00 PM 45 °F - 40 °F 75% 30.31 in 9 mi SW 11.2 mph - -   Overcast
4:20 PM 44.6 °F 38.8 °F 39.2 °F 81% 30.30 in 6.2 mi SW 11.5 mph - N/A   Mostly Cloudy
4:50 PM 44.6 °F 39.2 °F 39.2 °F 81% 30.30 in 6.2 mi SW 10.4 mph - N/A   Mostly Cloudy
5:20 PM 44.6 °F 38.4 °F 39.2 °F 81% 30.30 in 6.2 mi SW 12.7 mph - N/A   Mostly Cloudy
5:50 PM 44.6 °F 38.8 °F 39.2 °F 81% 30.30 in 6.2 mi SW 11.5 mph - N/A   Mostly Cloudy
6:20 PM 42.8 °F 36.6 °F 39.2 °F 87% 30.27 in 6.2 mi SSW 11.5 mph - N/A   Mostly Cloudy
6:50 PM 42.8 °F 36.6 °F 39.2 °F 87% 30.30 in 6.2 mi SW 11.5 mph - N/A   Mostly Cloudy
7:00 PM 43 °F - 38 °F 78% 30.31 in 9 mi SW 11.2 mph - -   Overcast
7:20 PM 42.8 °F 36.6 °F 39.2 °F 87% 30.30 in 6.2 mi SSW 11.5 mph - N/A   Mostly Cloudy
7:50 PM 42.8 °F 36.2 °F 37.4 °F 81% 30.30 in 6.2 mi SSW 12.7 mph - N/A   Mostly Cloudy
8:20 PM 42.8 °F 36.2 °F 37.4 °F 81% 30.30 in 6.2 mi SSW 12.7 mph - N/A   Mostly Cloudy
8:50 PM 42.8 °F 36.2 °F 37.4 °F 81% 30.30 in 6.2 mi SSW 12.7 mph - N/A   Mostly Cloudy
9:20 PM 42.8 °F 37.5 °F 37.4 °F 81% 30.30 in 6.2 mi SW 9.2 mph - N/A   Mostly Cloudy
9:50 PM 42.8 °F 37.0 °F 37.4 °F 81% 30.30 in 6.2 mi SSW 10.4 mph - N/A   Mostly Cloudy
10:00 PM 42 °F - 38 °F 79% 30.32 in 7 mi SSW 8.9 mph - -   Mostly Cloudy
10:20 PM 42.8 °F 37.0 °F 37.4 °F 81% 30.27 in 6.2 mi SSW 10.4 mph - N/A   Mostly Cloudy
10:50 PM 42.8 °F 37.0 °F 37.4 °F 81% 30.27 in 6.2 mi SSW 10.4 mph - N/A   Mostly Cloudy
11:20 PM 42.8 °F 36.6 °F 37.4 °F 81% 30.27 in 6.2 mi SSW 11.5 mph - N/A   Mostly Cloudy
11:50 PM 41.0 °F 34.7 °F 37.4 °F 87% 30.27 in 6.2 mi SSW 10.4 mph - N/A   Mostly Cloudy